Westhampton Beach, NY

4:36 AM EDT on October 19, 2017 (GMT -0400)
The Gabreski

Weather History for KFOK - August, 2014

Change the Weather History Date:

Saturday, August 2, 2014

  Actual Average Record
Temperature  
Mean Temperature 67 °F -  
Max Temperature 70 °F 78 °F 97 °F (2006)
Min Temperature 64 °F 60 °F 33 °F (1996)
Cooling Degree Days 2    
Growing Degree Days 17 (Base 50)    
Moisture  
Dew Point 63 °F    
Average Humidity 89    
Maximum Humidity 94    
Minimum Humidity 84    
Precipitation  
Precipitation 1.04 in - - ()
Sea Level Pressure  
Sea Level Pressure 30.17 in    
Wind  
Wind Speed 6 mph (NE)    
Max Wind Speed 14 mph    
Max Gust Speed 20 mph    
Visibility 6 miles    
Events Rain    
Averages and records for this station are not official NWS values.
T = Trace of Precipitation, MM = Missing Value Source: NWS Daily Summary

Daily Weather History Graph

Daily Weather History Graph

Search for Another Location

Airport or City:

Trip Planner

Search our weather history database for the weather conditions in past years. The results will help you decide how hot, cold, wet, or windy it might be!

Date:

Astronomy

Aug. 02, 2014 Rise Set
Actual Time 5:47 AM EDT 8:05 PM EDT
Civil Twilight 5:17 AM EDT 8:35 PM EDT
Nautical Twilight 4:39 AM EDT 9:13 PM EDT
Astronomical Twilight 3:57 AM EDT 9:55 PM EDT
Moon 12:09 PM EDT (8/2) 11:19 PM EDT (8/2)
Length of Visible Light 15h 18m
Length of Day
14h 17m
Waxing Crescent, 36% of the Moon is Illuminated
Aug 2
Waxing Crescent
Aug 3
First Quarter
Aug 10
Full
Aug 17
Last Quarter
Aug 25
New

Hourly Weather History & Observations

Time (EDT) Temp. Dew Point Humidity Pressure Visibility Wind Dir Wind Speed Gust Speed Precip Events Conditions
12:53 AM 70.0 °F 66.9 °F 90% 30.22 in 8.0 mi Calm Calm - 0.00 in Rain Light Rain
1:53 AM 70.0 °F 68.0 °F 93% 30.22 in 9.0 mi East 3.5 mph - 0.00 in Rain Light Rain
2:53 AM 70.0 °F 66.9 °F 90% 30.19 in 10.0 mi East 3.5 mph - 0.00 in Rain Light Rain
4:53 AM 70.0 °F 66.9 °F 90% 30.18 in 10.0 mi ENE 4.6 mph - 0.01 in Rain Light Rain
5:53 AM 70.0 °F 66.9 °F 90% 30.20 in 8.0 mi Calm Calm - 0.00 in Rain Light Rain
6:38 AM 69.8 °F 66.2 °F 88% 30.21 in 3.0 mi Calm Calm - 0.05 in Rain Rain
6:53 AM 69.1 °F 66.0 °F 90% 30.21 in 1.8 mi NE 6.9 mph - 0.12 in Rain Heavy Rain
7:00 AM 66.2 °F 64.4 °F 94% 30.20 in 2.0 mi NE 6.9 mph - 0.03 in Rain Heavy Rain
7:33 AM 66.2 °F 62.6 °F 88% 30.21 in 1.5 mi North 6.9 mph - 0.17 in Rain Heavy Rain
7:53 AM 64.9 °F 62.1 °F 90% 30.22 in 1.5 mi NNE 9.2 mph - 0.28 in Rain Heavy Rain
8:15 AM 64.4 °F 62.6 °F 94% 30.22 in 1.2 mi NNE 6.9 mph - 0.14 in Rain Heavy Rain
8:39 AM 66.2 °F 62.6 °F 88% 30.21 in 1.5 mi NE 6.9 mph - 0.24 in Rain Heavy Rain
8:53 AM 66.0 °F 64.0 °F 93% 30.21 in 2.0 mi ENE 8.1 mph - 0.30 in Rain Rain
9:31 AM 66.2 °F 62.6 °F 88% 30.20 in 3.0 mi ENE 5.8 mph - 0.12 in Rain Rain
9:37 AM 66.2 °F 64.4 °F 94% 30.21 in 2.5 mi ENE 6.9 mph - 0.14 in Rain Rain
9:53 AM 66.0 °F 63.0 °F 90% 30.21 in 2.5 mi NE 8.1 mph - 0.18 in Rain Rain
10:08 AM 64.4 °F 62.6 °F 94% 30.20 in 4.0 mi NE 10.4 mph - 0.03 in Rain Light Rain
10:53 AM 64.0 °F 60.1 °F 87% 30.17 in 4.0 mi ENE 10.4 mph - 0.05 in Rain Light Rain
11:19 AM 64.4 °F 60.8 °F 88% 30.16 in 3.0 mi NE 10.4 mph - 0.04 in Rain Light Rain
11:27 AM 64.4 °F 62.6 °F 94% 30.15 in 2.5 mi NE 11.5 mph 17.3 mph 0.07 in Rain Rain
11:35 AM 64.4 °F 62.6 °F 94% 30.14 in 4.0 mi ENE 10.4 mph - 0.08 in Rain Light Rain
11:53 AM 64.9 °F 62.1 °F 90% 30.15 in 6.0 mi East 9.2 mph 19.6 mph 0.08 in Rain Light Rain
12:53 PM 66.0 °F 63.0 °F 90% 30.15 in 10.0 mi NE 12.7 mph 18.4 mph 0.01 in   Overcast
1:53 PM 66.0 °F 62.1 °F 87% 30.17 in 8.0 mi ENE 6.9 mph - 0.00 in Rain Light Rain
2:26 PM 66.2 °F 62.6 °F 88% 30.17 in 4.0 mi NE 8.1 mph - 0.01 in Rain Light Rain
2:53 PM 66.0 °F 62.1 °F 87% 30.16 in 9.0 mi ENE 8.1 mph - 0.01 in   Overcast
3:53 PM 66.0 °F 62.1 °F 87% 30.15 in 8.0 mi ENE 8.1 mph - N/A   Overcast
4:53 PM 66.9 °F 62.1 °F 84% 30.13 in 10.0 mi ENE 8.1 mph 17.3 mph N/A   Overcast
5:51 PM 66.2 °F 62.6 °F 88% 30.12 in 10.0 mi NE 10.4 mph - N/A   Overcast
5:53 PM 66.0 °F 62.1 °F 87% 30.12 in 10.0 mi NE 13.8 mph - N/A   Overcast
6:53 PM 66.0 °F 61.0 °F 84% 30.12 in 10.0 mi NE 8.1 mph - N/A   Overcast
7:53 PM 66.0 °F 61.0 °F 84% 30.12 in 10.0 mi NNE 9.2 mph - N/A   Overcast
8:53 PM 64.9 °F 61.0 °F 87% 30.13 in 10.0 mi NNE 8.1 mph - N/A   Overcast
9:53 PM 66.0 °F 61.0 °F 84% 30.14 in 10.0 mi NNE 5.8 mph - N/A   Overcast
10:53 PM 64.9 °F 61.0 °F 87% 30.13 in 10.0 mi NNE 3.5 mph - N/A   Overcast